Regional Weather Roundup
Issued by NWS Upton, NY

Current Version | Previous Version | Text Only | Print | Product List | Glossary Off
Versions: 1 2 3 4 5 6 7 8 9 10 11 12 13 14 15 16 17 18 19 20 21 22 23 24 25 26 27
000 ASUS41 KOKX 231604 RWROKX REGIONAL WEATHER ROUNDUP NATIONAL WEATHER SERVICE NEW YORK NY 1200 PM EDT TUE AUG 23 2016 NOTE: "FAIR" INDICATES FEW OR NO CLOUDS BELOW 12,000 FEET WITH NO SIGNIFICANT WEATHER AND/OR OBSTRUCTIONS TO VISIBILITY. NYZ071-072-176-178-NJZ106-104-231700- NEW YORK CITY METRO AREA CITY SKY/WX TMP DP RH WIND PRES REMARKS Central Park SUNNY 77 49 37 CALM 30.34F LaGuardia APRT MOSUNNY 79 48 33 N6 30.30F Kennedy INTL MOSUNNY 76 45 33 N8 30.32F Newark/Liberty MOSUNNY 79 49 34 VRB5 30.31F Bronx Bot Gard N/A 75 46 35 NW8 30.34S Wall St Helipt SUNNY 81 52 36 NW6 30.32F Teterboro SUNNY 78 49 35 W6 30.30F $$ NYZ177-179-078>081-231700- LONG ISLAND NEW YORK CITY SKY/WX TMP DP RH WIND PRES REMARKS Farmingdale SUNNY 76 49 38 VRB3 30.31F MacArthur/ISP MOSUNNY 76 47 35 W7 30.31F Shirley SUNNY 77 52 41 VRB3 30.31F Riverhead NOT AVBL Westhampton SUNNY 76 47 35 NE6 30.32F Southampton N/A 77 50 38 N5 30.28S Bridgehampton NOT AVBL East Hampton FAIR 73 50 44 CALM 30.30F Montauk N/A 73 49 42 W5 30.32F $$ NYZ052-065-067-231700- HUDSON VALLEY CITY SKY/WX TMP DP RH WIND PRES REMARKS White Plains MOSUNNY 75 47 36 W8 30.31F Newburgh SUNNY 72 57 60 W9 30.33F Montgomery MOSUNNY 74 57 55 S3 30.31F Poughkeepsie N/A 76 52 43 CALM 30.30F Albany MOSUNNY 73 55 53 VRB3 30.29F $$ NJZ001-105-106-008-010-013-015-019>022-104-231700- NEW JERSEY CITY SKY/WX TMP DP RH WIND PRES REMARKS Newark/Liberty MOSUNNY 79 49 34 VRB5 30.31F Teterboro SUNNY 78 49 35 W6 30.30F Caldwell SUNNY 76 52 43 VRB3 30.32F Morristown SUNNY 75 52 43 CALM 30.32F Somerville SUNNY 77 54 44 CALM 30.31F Linden FAIR 78 48 35 CALM 30.33F Sussex SUNNY 73 57 57 S6 30.32F Abdover N/A 72 54 53 CALM 30.33F Trenton SUNNY 76 52 43 N5 30.33F Millville SUNNY 78 53 41 NW3 30.34S Atlantic City SUNNY 78 51 38 VRB3 30.33F Wrightstown SUNNY 76 54 45 NW8 30.30F Toms River SUNNY 76 52 43 N8 30.33F Belmar SUNNY 77 51 40 N8 30.33F $$ PAZ047>061-062-071-231700- EASTERN PENNSYLVANIA CITY SKY/WX TMP DP RH WIND PRES REMARKS Philadelphia MOSUNNY 78 51 38 S3 30.33F Allentown SUNNY 75 55 49 VRB5 30.33F Scranton SUNNY 74 55 51 W7 30.33F $$ CTZ002-004>006-009-010-012-RIZ004-006-007-MAZ004-011-015-231700- SOUTHERN NEW ENGLAND IN CT CITY SKY/WX TMP DP RH WIND PRES REMARKS Bradley INTL MOSUNNY 75 51 43 NE3 30.30F Hartford SUNNY 76 52 43 VRB3 30.30S Danbury SUNNY 74 53 48 MISG 30.33F Wtrbury/Oxford MOSUNNY 72 52 49 N6 30.35S Bridgeport SUNNY 75 54 47 S10 30.31S Meriden SUNNY 76 52 43 S6 30.30F New Haven SUNNY 74 51 44 VRB5 30.31S Chester FAIR 73 48 40 N6 30.31F Groton SUNNY 75 57 53 SW10 30.29F Wilimantic SUNNY 75 51 43 NW6 30.30F IN RI CITY SKY/WX TMP DP RH WIND PRES REMARKS Providence MOSUNNY 75 47 36 VRB3 30.29F Block Island SUNNY 74 50 42 W7 30.31F Westerly SUNNY 75 44 33 S9 30.30F IN MA CITY SKY/WX TMP DP RH WIND PRES REMARKS Boston MOSUNNY 76 45 33 SW8 30.26F Worcester SUNNY 69 47 45 CALM 30.30F Westfield SUNNY 76 46 34 VRB5 30.28F Provincetown SUNNY 71 57 61 NW8 30.28F Nantucket SUNNY 72 50 45 VRB3 30.29S $$ ANZ330-335-338-340-345-350-353-355-231700- COASTAL MARINE OBSERVATIONS STATION/POSITION TIME SKY/WX TEMP WIND PRES VSBY WAVE AIR SEA DIR/SP/G HT/PER (UTC) (F) (DEG/KT/KT) (MB) (MI) (FT/S) NY HARB ENTRANCE 1450 71 77 270/ 2/ 4 1026.9 1/ 9 20S FIRE ISLAND 1450 70 77 20/ 6/ 8 1026.7 2/ 4 GREAT SOUTH BAY 1515 73 80 280/ 4/ 6 N/A 23 SSW MONTAUK P 1450 69 74 340/ 4/ 6 1027.1 2/11 15 E BARNEGAT LI 1500 76 N/A 2/ 8 HUDSON CANYON 1450 72 78 1026.5 2/ 5 KINGS POINT 1500 73 75 1026.7 EXECUTION ROCKS 1500 74 150/ 2/ 2 N/A CENTRAL LI SOUND NOT AVBL EASTERN LI SOUND 1500 69 70 280/ 2/ 4 N/A ROBBINS REEF 1500 73 360/ 5/ 8 1026.2 $$ >>>>>>>>>>>>>>>>>>>>>>>>>>>> KEY <<<<<<<<<<<<<<<<<<<<<<<<<<< > < > SKY/WX - Sky Condition/Present Weather < > TMP - Temperature in Fahrenheit < > DP - Dew Point in Fahrenheit < > RH - Relative Humidity in Percent < > WIND - Direction (from) and Speed in MPH < > PRES - Mean Sea Level Pressure (inches of Hg) < > WCI - Wind Chill Index < > VSB - VISIBILITY IN MILES < > HX - HEAT INDEX < > TC - TEMPERATURE IN CELSIUS < > VRB - VARIABLE WIND DIRECTION < > < >>>>>>>>>>>>>>>>>>>>>>>>>>>> KEY <<<<<<<<<<<<<<<<<<<<<<<<<<<

USA.gov is the U.S. government's official web portal to all federal, state and local government web resources and services.